Temperature
21 21 21 21 21 22 23 24 24 24 24 24 24 24 23 22 21 19 18 18 18 17 17 18 18 17 17 17 17 17 17 17 17 17 17 17 17 17 17 17 17 17 17 17 17 17 17 17 17
21 21 21 22 22 23 23 24 24 24 25 25 24 24 23 21 20 18 18 18 18 17 17 17 17 17 17 17 17 17 17 17 17 17 17 17 17 17 17 17 17 17 17 17 17 17 17 17 17
21 21 22 23 23 23 23 24 24 25 25 25 24 23 22 20 19 18 18 18 18 17 17 17 17 17 17 17 17 17 17 17 17 17 17 17 17 17 17 17 17 17 17 17 17 17 17 17 17
21 22 23 24 23 24 24 25 25 25 25 25 24 22 20 20 19 18 18 18 18 17 17 17 17 17 17 17 17 17 16 16 17 17 16 16 17 16 16 16 17 17 17 17 17 17 17 17 17
22 23 24 24 24 25 25 26 26 25 25 24 23 22 20 19 19 18 18 18 18 17 17 17 17 17 17 17 16 16 16 16 16 16 16 16 16 16 16 16 17 17 17 17 17 17 17 17 17
23 25 23 23 24 25 26 26 26 25 25 24 23 22 20 19 19 18 18 18 18 17 17 17 17 17 17 17 16 16 16 16 16 16 16 16 16 16 16 16 16 16 17 17 17 17 17 17 17
24 24 24 24 24 24 25 25 25 25 25 24 24 22 20 19 19 19 18 18 18 18 18 17 17 17 17 17 17 16 16 16 16 16 16 16 16 16 16 16 16 16 16 16 16 17 17 17 17
25 25 25 24 24 24 25 25 25 25 24 24 24 22 20 19 19 19 19 18 18 18 18 17 17 17 17 17 17 16 16 16 16 16 16 16 16 16 16 16 16 16 16 16 16 16 16 16 16
25 24 23 24 24 24 25 25 25 25 24 24 23 22 21 20 19 19 19 19 18 18 18 18 18 17 17 17 17 16 16 16 16 16 16 16 16 16 16 16 16 16 16 16 16 16 16 16 16
26 24 24 25 25 25 25 25 25 25 24 24 22 21 21 20 20 20 19 19 19 19 18 18 18 18 17 17 17 17 16 16 16 16 16 16 16 16 16 16 16 16 16 16 16 16 16 16 16
26 25 26 26 26 26 25 25 25 25 24 24 23 22 21 21 20 20 20 19 19 19 19 18 18 18 18 17 17 17 16 16 16 16 16 16 16 16 16 16 16 16 16 16 16 16 16 16 16
26 26 26 26 26 26 25 25 25 25 24 24 23 22 21 21 21 20 20 20 19 19 19 18 18 18 18 17 17 17 17 16 16 16 16 16 16 16 16 16 16 16 16 16 16 16 16 16 16
26 26 26 26 26 25 25 25 25 24 24 23 23 22 22 22 21 21 20 20 19 19 19 19 18 18 18 18 17 17 17 17 16 16 16 16 16 16 16 16 16 16 16 16 16 16 16 16 16
26 26 26 26 26 26 25 25 25 24 24 24 23 22 22 22 21 21 20 20 20 19 19 19 18 18 18 18 17 17 17 17 17 16 16 16 16 16 16 16 16 16 16 16 16 16 16 16 15
26 26 26 26 26 26 25 24 25 25 24 24 23 23 22 22 21 21 21 20 20 19 19 18 18 18 18 18 17 17 17 17 16 16 16 16 16 16 16 16 16 16 16 16 15 15 15 15 15
26 25 24 26 26 26 25 23 25 24 24 24 23 23 22 22 21 21 21 20 20 20 19 19 18 18 18 17 17 17 17 17 16 16 16 16 16 16 16 16 16 16 16 15 15 15 15 15 15
25 25 25 25 26 26 25 24 25 25 24 24 23 23 22 22 21 21 21 20 20 20 19 19 18 18 18 17 17 17 17 17 16 16 16 16 16 16 16 16 16 16 15 15 15 15 15 15 15
25 25 25 25 26 26 25 25 25 25 25 24 24 23 23 22 22 21 21 20 20 20 19 19 18 18 17 17 17 17 16 16 16 16 16 16 16 16 16 15 15 15 15 15 15 15 15 15 15
26 26 25 25 26 26 25 25 25 25 25 24 24 24 23 22 22 21 21 20 20 20 19 19 18 18 17 17 17 17 16 16 16 16 16 16 16 16 16 15 15 15 15 15 15 15 15 15 15
26 26 25 26 26 26 25 25 26 26 25 25 25 24 23 23 22 21 21 20 20 19 19 19 18 18 17 17 17 16 16 16 16 16 16 16 16 16 15 15 15 15 15 15 15 15 15 15 15
26 25 25 25 25 26 25 24 25 26 26 25 25 24 24 23 22 21 21 20 20 20 19 19 18 18 17 17 17 16 16 16 16 16 16 16 16 15 15 15 15 15 15 15 15 15 15 15 15
25 26 26 25 24 24 25 23 24 25 25 25 24 24 24 23 22 21 21 20 20 19 19 19 18 18 17 17 16 16 16 16 16 16 16 16 16 15 15 15 15 15 15 15 15 15 15 15 15
26 26 25 25 24 24 25 24 24 25 24 24 24 24 24 23 22 22 21 20 20 19 19 19 18 18 17 17 16 16 16 16 16 16 16 16 16 15 15 15 15 15 15 15 15 15 15 15 15
26 25 25 25 24 23 25 24 24 24 25 25 25 24 24 23 22 21 21 20 19 19 19 18 18 17 17 17 16 16 16 16 16 16 16 16 15 15 15 15 15 15 15 15 15 15 15 15 15
25 24 23 23 22 24 26 25 24 25 26 25 25 24 23 23 22 21 20 20 19 19 18 18 18 17 17 17 17 16 16 16 16 16 16 16 15 15 15 15 15 15 15 15 15 15 15 15 15
25 25 23 23 23 24 25 24 24 26 26 25 25 24 23 22 22 21 20 19 19 19 18 18 17 17 17 17 17 17 16 16 16 16 16 16 16 16 15 15 15 15 15 15 15 15 15 15 15
25 25 25 24 24 24 24 24 25 25 25 25 24 24 23 22 21 21 20 19 19 18 18 18 17 17 17 17 17 17 17 16 16 16 16 16 16 15 15 15 15 15 15 15 15 15 15 15 15
25 25 25 24 23 23 24 24 23 24 24 24 24 24 23 22 21 21 20 19 19 18 18 18 17 17 17 17 17 17 17 16 16 16 16 16 16 15 15 15 15 15 15 15 15 15 15 15 15
24 24 24 24 24 23 23 23 25 24 24 24 24 23 23 22 21 21 20 19 19 18 18 17 17 17 17 17 17 16 16 16 16 16 16 16 16 15 15 15 15 15 15 15 15 15 15 15 14
24 24 24 23 23 24 23 23 26 25 24 24 24 23 23 22 21 21 20 19 19 18 18 17 17 17 17 17 17 16 16 16 16 16 16 16 16 16 15 15 15 15 15 15 15 15 15 14 14
Wind_Speed
9 11 7 3 2 1 7 7 9 9 8 9 10 10 13 12 8 7 3 4 7 9 10 11 11 11 11 12 11 11 11 11 11 11 10 10 10 11 11 11 11 11 12 11 11 10 10 10 10
10 6 4 3 1 3 7 7 10 10 7 5 9 12 13 11 10 7 3 3 7 9 10 10 10 10 10 11 11 11 11 11 11 11 10 10 10 11 10 10 10 11 11 11 10 10 10 10 10
11 7 3 1 4 6 6 7 8 8 6 7 8 11 9 7 8 5 4 5 8 9 11 10 10 10 10 10 10 10 10 10 11 10 10 10 10 10 10 10 10 10 10 11 10 10 10 10 10
5 3 3 3 9 9 8 7 6 7 8 9 9 9 9 9 6 6 6 8 9 9 11 10 10 10 9 9 9 10 10 10 10 10 10 10 10 9 9 10 10 11 11 10 11 11 11 10 10
4 3 1 6 9 8 7 7 7 8 8 11 12 12 10 9 8 7 7 9 9 8 11 11 10 10 9 9 9 10 10 10 10 10 10 10 10 10 9 9 10 10 10 10 10 11 11 10 10
4 2 2 6 8 7 7 8 9 10 9 10 10 11 8 8 7 6 7 7 8 8 10 12 11 10 9 10 10 9 10 10 9 9 9 10 9 9 9 9 10 10 10 10 9 10 10 10 9
3 1 4 7 7 7 8 8 8 9 10 8 7 10 9 8 6 6 7 7 7 6 8 10 11 10 11 11 10 9 9 8 8 8 8 8 9 9 9 9 10 10 10 9 9 9 9 9 8
3 2 4 6 7 7 7 8 9 9 8 7 7 8 8 9 8 7 6 6 6 6 6 6 8 11 11 11 10 9 8 7 7 7 7 7 8 9 9 9 10 10 9 9 9 8 8 7 7
2 2 5 5 5 6 6 7 7 6 8 10 12 12 11 11 9 7 6 5 5 6 5 5 5 7 10 11 10 9 9 7 7 6 5 6 6 7 8 9 9 9 8 7 7 6 7 6 4
2 5 6 6 6 6 6 6 5 5 8 10 12 13 12 10 8 7 7 6 5 5 5 5 5 6 8 8 8 7 7 7 5 6 5 5 6 8 8 9 8 8 6 5 4 4 4 3 3
5 6 6 8 7 6 6 6 5 5 6 7 9 12 10 8 7 7 7 7 5 5 5 5 5 6 7 5 6 5 5 5 5 5 6 6 6 6 6 6 6 5 4 3 3 2 2 3 4
6 6 6 7 5 4 5 5 5 6 6 8 9 10 9 7 7 7 7 7 5 6 5 5 4 5 6 6 4 4 4 4 3 4 6 5 3 2 3 3 4 4 4 3 3 2 4 4 6
6 5 5 5 4 3 4 5 5 6 6 8 10 9 8 7 8 7 7 7 7 6 5 6 5 6 6 5 2 4 4 4 5 4 5 6 3 2 2 2 3 4 4 3 3 4 5 5 7
4 4 4 3 3 3 3 3 4 5 7 7 8 8 7 7 7 7 7 6 6 6 6 6 5 5 5 4 3 4 5 5 5 4 4 6 4 3 3 3 4 3 3 4 4 5 4 4 5
3 2 2 3 2 3 2 1 3 5 6 6 6 7 7 7 6 6 7 6 6 6 7 6 4 5 5 6 5 4 4 5 4 4 4 5 5 4 4 3 3 3 5 5 5 5 4 4 4
4 4 2 3 3 3 2 1 4 6 6 6 6 7 7 7 6 6 7 6 5 6 7 6 5 5 6 5 4 3 4 5 4 4 4 4 6 7 5 3 2 4 5 4 3 3 3 4 4
5 3 3 3 4 3 3 1 4 6 5 5 5 6 7 8 7 6 7 6 5 5 6 6 5 5 6 5 4 3 4 4 4 4 4 5 6 7 6 3 2 5 3 3 3 4 3 3 4
3 1 2 2 2 2 2 2 3 5 5 4 6 6 7 8 8 7 7 6 5 4 5 6 5 5 6 3 3 3 3 2 3 4 4 5 5 7 6 3 3 5 3 3 3 3 3 2 2
2 2 0 2 1 1 1 1 2 4 4 4 6 7 7 8 8 9 8 7 6 4 5 7 5 5 5 3 2 3 2 2 2 2 4 4 4 5 4 3 4 4 3 2 3 2 3 2 2
3 2 1 1 1 1 1 2 3 4 4 4 4 6 8 8 8 8 9 7 6 5 3 6 6 5 6 3 2 3 2 2 3 2 2 2 3 4 4 3 2 3 3 2 2 2 1 1 1
3 2 1 1 2 4 4 3 3 4 3 4 2 3 6 8 9 9 8 7 6 5 4 5 6 6 6 5 3 3 3 2 2 1 1 2 3 3 3 3 3 2 2 2 1 2 2 1 1
3 1 2 3 5 4 4 2 2 5 4 4 3 3 4 7 8 9 9 7 6 5 4 5 6 6 6 5 3 3 2 1 1 1 2 2 3 3 3 2 2 2 2 2 1 2 1 1 0
2 1 3 6 6 6 6 4 2 6 5 4 4 4 4 7 8 9 9 8 6 5 4 4 6 6 6 4 4 2 2 1 1 1 2 2 2 2 3 2 1 1 1 2 1 2 1 1 0
1 3 6 7 6 6 7 4 1 4 4 5 5 5 4 7 8 8 9 8 7 6 5 4 5 6 5 3 4 3 2 2 2 2 2 1 2 1 2 2 1 1 1 1 1 1 1 1 1
6 5 3 5 6 4 3 2 2 6 5 5 5 5 6 7 8 8 8 8 7 7 6 4 5 5 5 3 3 3 3 2 2 3 3 2 2 1 1 1 0 1 1 1 1 1 1 1 1
7 7 4 3 2 0 2 2 4 8 7 6 6 6 7 7 8 8 8 7 7 7 6 5 5 5 4 3 2 3 3 2 1 2 2 2 2 2 2 2 1 1 1 1 1 1 0 1 1
6 6 7 6 5 4 2 4 5 7 7 6 6 6 6 7 8 8 8 7 7 7 5 4 5 5 5 4 3 2 2 2 2 1 2 2 2 2 2 2 2 2 2 1 1 1 1 0 1
6 6 4 4 3 3 3 4 4 6 7 5 5 6 6 6 7 7 8 7 7 7 5 5 4 5 5 4 3 2 2 2 2 1 2 2 2 2 2 1 2 2 2 2 2 1 1 1 1
6 7 5 4 4 2 2 2 6 7 7 5 4 5 5 6 6 6 6 6 6 7 6 5 4 4 4 4 3 3 3 3 2 2 2 2 2 2 3 2 2 2 2 3 3 1 0 0 1
5 6 6 5 4 4 3 1 5 7 7 6 5 5 5 6 6 6 6 6 6 6 6 5 5 4 4 4 4 3 3 3 3 2 2 2 2 2 2 2 2 2 1 2 3 2 1 1 1
Wind_Direction
260 244 244 253 270 122 65 59 57 50 53 49 52 63 68 53 49 80 91 60 79 90 91 86 79 77 73 71 73 75 76 76 76 78 78 74 73 75 74 76 79 78 74 72 70 71 73 74 74
276 267 266 242 290 77 68 63 64 58 58 65 64 65 71 63 66 90 89 70 85 91 87 83 83 80 76 74 74 76 79 81 81 78 79 80 77 78 79 78 80 79 80 78 75 73 72 72 72
267 270 265 271 42 59 73 67 73 69 61 63 70 62 55 60 66 80 100 95 85 88 89 88 87 83 79 77 77 77 79 80 83 83 80 81 81 79 78 78 79 80 80 80 81 78 74 70 68
270 262 249 64 69 64 75 80 84 75 63 62 72 74 69 52 68 97 107 96 91 94 98 98 93 88 85 83 81 79 80 86 84 85 82 85 85 81 79 78 78 78 78 79 83 82 79 73 68
249 259 107 82 75 72 73 74 70 71 64 68 77 88 84 76 86 100 98 95 97 98 103 107 103 97 92 91 89 86 84 89 87 86 85 86 89 88 83 83 83 81 82 82 83 83 80 76 69
271 252 89 87 85 75 67 62 67 75 73 76 88 97 95 104 98 91 92 97 99 106 112 112 110 105 101 100 98 95 93 94 93 91 90 89 95 95 89 87 87 86 86 87 86 85 82 75 69
276 340 94 100 93 76 65 58 59 68 64 58 77 96 110 111 111 106 98 94 96 101 112 124 130 122 113 107 107 108 104 105 104 102 100 99 101 101 95 97 97 93 90 92 92 89 85 80 75
288 341 69 83 88 79 67 68 62 66 66 60 63 91 115 125 127 117 111 110 111 104 105 117 130 134 133 127 121 121 122 124 121 119 119 117 114 109 105 100 100 99 96 96 97 96 92 86 78
274 63 68 70 81 92 86 78 78 85 85 76 73 84 110 128 133 131 123 110 101 106 112 115 125 126 127 129 132 143 142 140 139 142 140 138 132 120 109 104 108 105 103 103 104 107 105 102 99
65 73 75 79 86 98 93 83 75 78 85 92 98 101 117 134 140 138 127 117 116 117 112 115 120 119 115 113 127 139 132 141 141 128 134 130 112 111 110 117 119 117 115 118 123 125 120 121 121
74 79 77 80 84 88 93 86 80 74 78 90 109 117 127 135 135 124 112 104 108 106 93 95 98 106 111 109 109 104 106 114 103 105 105 104 110 120 128 140 142 140 129 115 115 122 108 96 94
83 76 78 85 81 79 81 80 77 77 81 88 101 121 127 128 123 120 113 108 108 97 96 93 96 103 102 103 109 120 110 101 92 79 97 93 87 88 104 117 130 125 104 92 88 87 77 74 80
88 86 86 98 109 93 85 88 89 97 100 105 112 123 132 134 126 117 114 114 108 103 105 93 86 90 98 99 118 112 105 102 103 80 82 98 97 98 98 90 91 93 99 93 80 75 67 56 61
100 94 92 101 109 114 104 98 113 122 128 123 123 131 131 122 122 124 119 116 117 117 101 87 82 89 100 109 104 95 104 100 93 82 88 96 96 96 82 80 78 75 81 90 96 95 81 69 65
140 153 135 135 138 119 114 135 134 133 141 140 138 135 132 127 128 124 124 124 121 120 110 102 91 86 86 80 74 82 94 101 88 74 65 98 98 89 81 73 76 81 76 77 84 91 91 92 84
211 211 180 149 152 146 168 139 130 142 153 147 151 144 143 137 136 126 122 119 114 113 107 103 96 89 82 82 85 79 81 82 79 80 59 70 87 87 82 72 64 79 79 82 83 84 78 79 76
223 211 156 148 149 157 180 181 136 147 159 159 162 155 153 151 146 134 120 116 113 112 113 116 105 97 88 81 85 72 80 83 82 74 63 55 67 86 85 74 81 84 77 67 74 72 75 83 83
217 191 153 134 151 179 180 178 146 161 171 171 167 166 161 155 150 140 129 128 119 113 115 109 107 106 100 82 79 74 59 63 77 71 72 59 58 77 87 79 80 83 73 71 76 87 86 94 106
248 233 213 105 177 216 235 203 182 172 175 182 173 176 168 152 151 144 141 140 134 130 127 124 134 116 106 92 90 93 84 69 69 72 80 85 84 89 87 74 66 69 69 78 95 97 92 91 107
258 242 197 145 164 274 250 254 210 173 182 183 185 176 166 156 152 148 151 149 140 140 137 129 122 114 113 110 100 107 107 94 88 79 91 87 94 97 112 101 90 88 81 61 77 100 88 90 121
248 258 251 256 279 260 259 254 194 167 154 148 154 157 152 155 156 149 147 136 127 129 133 125 124 120 114 103 75 79 77 65 81 108 92 69 83 75 79 96 97 104 114 108 108 104 107 116 311
246 276 266 257 256 253 231 278 217 165 152 153 156 160 154 149 149 148 141 135 140 140 135 127 122 113 104 103 99 110 113 112 137 143 146 146 120 112 102 93 96 101 105 123 127 106 77 98 336
309 331 268 264 268 268 245 244 225 153 156 152 152 153 150 143 144 144 140 140 141 128 114 107 108 108 105 112 118 108 103 129 127 113 122 116 107 115 123 113 99 79 107 118 102 105 96 105 69
250 265 252 242 252 257 240 227 189 147 140 142 137 138 138 139 142 141 135 135 134 123 113 106 112 111 117 133 138 149 148 156 148 139 130 118 130 134 132 149 174 132 101 102 128 143 173 161 94
212 234 244 221 215 229 181 189 120 104 102 107 125 133 137 135 139 137 136 142 139 135 133 133 125 127 139 159 171 165 168 176 150 143 145 149 146 137 149 136 138 130 128 138 116 128 210 158 151
229 233 247 273 269 188 164 175 116 104 98 97 105 117 129 133 135 138 139 141 142 140 144 153 147 146 151 172 193 164 156 132 109 122 141 153 135 145 152 132 116 109 112 106 94 90 74 52 112
250 238 264 286 296 290 185 133 122 118 115 103 100 105 118 130 135 139 139 142 144 145 153 160 155 158 163 178 183 166 162 138 130 161 134 119 126 151 125 133 128 97 86 80 103 113 114 46 66
271 285 269 256 276 266 208 188 155 133 115 102 111 113 116 129 136 140 144 147 148 148 155 165 168 170 167 174 182 172 158 125 118 136 121 129 129 112 107 117 130 135 129 102 77 45 37 57 103
226 242 254 255 252 271 291 65 109 120 113 110 103 104 115 124 133 135 138 146 148 149 152 162 174 174 167 173 175 176 166 151 160 158 146 153 166 157 159 165 146 130 142 143 137 142 110 42 76
237 249 261 263 269 262 265 133 104 109 107 99 92 95 102 117 124 130 136 144 151 157 162 172 177 173 169 169 170 185 165 167 170 165 183 185 183 173 161 156 149 142 120 132 140 156 142 76 61
Height
1494 1494 1495 1497 1498 1500 1502 1500 1496 1497 1497 1499 1499 1500 1504 1508 1513 1524 1523 1521 1520 1519 1518 1517 1517 1517 1516 1516 1517 1517 1517 1518 1518 1519 1520 1520 1521 1521 1522 1522 1523 1523 1524 1524 1525 1526 1526 1527 1527
1494 1496 1498 1498 1500 1506 1507 1501 1500 1500 1500 1500 1501 1503 1506 1512 1516 1520 1521 1521 1521 1520 1519 1518 1518 1518 1518 1518 1518 1518 1518 1519 1520 1520 1521 1521 1522 1522 1523 1523 1524 1524 1525 1525 1526 1527 1528 1528 1529
1495 1497 1498 1496 1501 1507 1508 1502 1501 1501 1501 1501 1503 1506 1511 1517 1519 1521 1522 1522 1521 1521 1519 1519 1519 1519 1519 1519 1519 1519 1519 1520 1521 1521 1522 1522 1523 1524 1524 1525 1525 1525 1526 1527 1527 1528 1529 1529 1530
1498 1499 1498 1499 1504 1502 1501 1501 1500 1501 1502 1503 1504 1510 1517 1520 1521 1522 1523 1522 1522 1521 1520 1520 1520 1520 1520 1520 1520 1521 1521 1521 1522 1522 1523 1523 1524 1525 1525 1526 1526 1527 1527 1528 1529 1530 1530 1531 1531
1499 1498 1500 1504 1504 1501 1500 1500 1501 1502 1503 1505 1508 1514 1520 1523 1523 1523 1524 1524 1523 1523 1522 1522 1522 1521 1521 1521 1521 1522 1522 1523 1523 1524 1524 1525 1525 1526 1526 1527 1527 1528 1529 1530 1530 1531 1532 1532 1533
1500 1497 1505 1510 1507 1502 1501 1502 1503 1504 1506 1508 1510 1515 1522 1524 1524 1525 1525 1525 1525 1524 1523 1523 1523 1522 1522 1522 1523 1523 1524 1524 1525 1525 1525 1526 1527 1527 1528 1528 1529 1529 1530 1531 1532 1533 1533 1534 1534
1500 1498 1504 1506 1508 1506 1504 1505 1506 1506 1508 1510 1512 1516 1522 1524 1525 1526 1526 1526 1526 1526 1525 1524 1524 1524 1524 1524 1525 1525 1526 1526 1526 1527 1527 1528 1528 1529 1529 1530 1530 1531 1531 1532 1533 1534 1534 1535 1535
1499 1499 1503 1505 1509 1510 1507 1507 1509 1510 1511 1513 1513 1517 1522 1525 1526 1526 1527 1527 1527 1527 1527 1527 1526 1526 1526 1526 1527 1527 1527 1528 1528 1529 1529 1530 1530 1531 1531 1532 1532 1532 1533 1534 1534 1535 1536 1536 1537
1499 1504 1510 1509 1510 1510 1508 1509 1511 1512 1513 1515 1516 1519 1522 1525 1526 1527 1528 1528 1529 1529 1529 1529 1528 1528 1528 1528 1529 1529 1530 1530 1530 1531 1532 1532 1532 1533 1533 1534 1534 1534 1535 1535 1536 1537 1538 1538 1538
1500 1508 1508 1505 1506 1508 1509 1511 1512 1513 1514 1516 1519 1522 1524 1525 1526 1527 1528 1529 1530 1530 1531 1530 1530 1530 1531 1531 1531 1531 1532 1532 1533 1533 1534 1534 1535 1535 1535 1536 1536 1536 1536 1537 1537 1538 1539 1539 1540
1502 1505 1505 1506 1508 1509 1510 1512 1513 1514 1516 1518 1520 1522 1524 1526 1527 1528 1529 1530 1531 1532 1532 1532 1532 1532 1532 1532 1533 1534 1534 1534 1535 1535 1536 1536 1537 1537 1537 1537 1538 1538 1538 1538 1539 1540 1540 1541 1541
1505 1505 1507 1508 1510 1511 1511 1513 1514 1516 1518 1519 1521 1523 1525 1526 1527 1529 1530 1531 1532 1533 1533 1533 1533 1533 1534 1534 1534 1535 1536 1536 1536 1537 1537 1538 1538 1538 1539 1539 1539 1540 1540 1540 1540 1541 1541 1542 1543
1507 1508 1509 1510 1511 1512 1513 1514 1516 1517 1519 1520 1522 1524 1525 1527 1528 1529 1530 1532 1533 1533 1534 1535 1535 1535 1535 1535 1536 1536 1537 1538 1538 1538 1539 1539 1539 1540 1540 1540 1541 1541 1541 1541 1542 1542 1543 1543 1543
1508 1509 1510 1510 1511 1513 1514 1515 1516 1517 1519 1521 1522 1524 1525 1527 1528 1530 1531 1532 1533 1534 1535 1535 1536 1536 1536 1536 1537 1538 1539 1539 1540 1540 1540 1540 1541 1541 1541 1541 1542 1542 1542 1542 1543 1543 1544 1544 1544
1509 1510 1510 1511 1511 1512 1514 1516 1515 1517 1518 1520 1522 1524 1525 1527 1529 1530 1531 1533 1534 1535 1535 1536 1537 1537 1537 1538 1538 1539 1540 1540 1541 1541 1542 1542 1542 1542 1542 1542 1543 1543 1543 1543 1544 1544 1545 1545 1545
1508 1511 1516 1511 1510 1512 1517 1522 1515 1516 1518 1519 1521 1523 1525 1527 1529 1530 1532 1533 1534 1535 1536 1537 1538 1538 1538 1539 1539 1540 1541 1541 1542 1542 1543 1543 1543 1543 1543 1543 1544 1544 1544 1544 1545 1545 1546 1546 1546
1510 1515 1516 1512 1509 1510 1514 1518 1514 1515 1517 1518 1520 1522 1524 1526 1528 1530 1531 1534 1535 1536 1537 1537 1538 1539 1539 1540 1540 1541 1542 1542 1543 1543 1544 1544 1544 1544 1544 1544 1544 1545 1545 1545 1546 1546 1547 1547 1547
1515 1513 1514 1513 1509 1509 1512 1514 1513 1514 1515 1517 1518 1521 1523 1525 1527 1530 1531 1533 1535 1536 1537 1538 1538 1540 1540 1541 1541 1542 1542 1543 1544 1544 1544 1545 1545 1545 1545 1545 1545 1546 1546 1546 1546 1547 1547 1548 1548
1505 1509 1512 1511 1507 1510 1512 1512 1511 1512 1514 1515 1516 1519 1521 1523 1526 1528 1531 1533 1535 1536 1537 1538 1539 1540 1540 1541 1542 1542 1543 1543 1544 1545 1545 1546 1546 1546 1546 1546 1546 1546 1546 1547 1547 1547 1548 1548 1549
1505 1510 1512 1510 1507 1509 1512 1511 1508 1509 1511 1513 1514 1516 1518 1521 1524 1527 1530 1532 1534 1536 1537 1538 1539 1540 1541 1541 1542 1543 1543 1544 1544 1545 1546 1546 1547 1547 1547 1547 1547 1547 1547 1547 1547 1548 1549 1549 1550
1507 1510 1512 1513 1510 1509 1512 1514 1509 1507 1509 1511 1513 1515 1517 1519 1522 1526 1529 1531 1533 1535 1537 1538 1539 1540 1541 1541 1542 1543 1543 1544 1544 1545 1546 1546 1547 1547 1547 1547 1547 1547 1548 1548 1548 1549 1549 1549 1550
1510 1505 1508 1511 1516 1518 1513 1527 1512 1506 1508 1510 1512 1514 1515 1518 1521 1524 1528 1531 1533 1535 1537 1538 1539 1540 1541 1541 1542 1543 1544 1544 1545 1545 1546 1546 1547 1547 1548 1548 1548 1548 1548 1548 1549 1549 1549 1550 1550
1506 1505 1508 1510 1514 1517 1511 1520 1514 1505 1509 1509 1510 1512 1514 1517 1520 1523 1526 1529 1532 1534 1536 1538 1538 1539 1540 1541 1542 1543 1544 1544 1545 1545 1546 1546 1547 1547 1548 1548 1548 1548 1549 1549 1549 1549 1549 1550 1550
1505 1508 1508 1508 1514 1525 1511 1516 1518 1507 1506 1506 1508 1511 1513 1516 1519 1522 1525 1528 1532 1534 1536 1537 1538 1539 1540 1541 1542 1543 1544 1544 1545 1545 1546 1546 1547 1547 1548 1548 1548 1548 1549 1549 1549 1549 1549 1549 1550
1505 1516 1526 1528 1529 1521 1502 1510 1514 1502 1501 1504 1507 1510 1513 1515 1518 1521 1524 1527 1530 1532 1534 1536 1538 1539 1540 1541 1542 1543 1543 1544 1545 1545 1546 1546 1547 1547 1548 1548 1548 1548 1548 1549 1549 1549 1549 1549 1549
1505 1509 1526 1533 1527 1517 1506 1512 1508 1499 1502 1504 1507 1509 1512 1515 1518 1521 1524 1527 1529 1531 1533 1535 1537 1538 1539 1540 1542 1543 1543 1544 1545 1545 1546 1546 1546 1547 1547 1547 1548 1548 1548 1548 1548 1549 1549 1549 1549
1505 1506 1503 1513 1514 1519 1512 1508 1504 1500 1503 1505 1507 1510 1512 1515 1517 1520 1523 1526 1528 1530 1532 1534 1536 1537 1538 1540 1541 1542 1543 1544 1544 1545 1546 1546 1546 1547 1547 1547 1547 1547 1548 1548 1548 1548 1548 1548 1549
1502 1502 1506 1514 1526 1528 1516 1511 1512 1506 1505 1507 1508 1510 1512 1515 1517 1520 1523 1525 1527 1529 1531 1533 1535 1536 1538 1539 1540 1541 1542 1543 1544 1544 1545 1545 1546 1546 1546 1547 1547 1547 1547 1547 1547 1548 1548 1548 1548
1505 1506 1505 1508 1511 1525 1528 1520 1498 1502 1504 1507 1509 1510 1512 1515 1517 1520 1522 1524 1526 1528 1530 1532 1534 1535 1536 1538 1539 1540 1541 1542 1543 1544 1544 1545 1545 1546 1546 1546 1546 1547 1547 1547 1547 1547 1548 1548 1548
1501 1504 1507 1517 1515 1511 1520 1522 1497 1500 1503 1506 1509 1511 1513 1515 1517 1520 1522 1524 1525 1527 1529 1531 1532 1534 1535 1536 1537 1539 1540 1541 1542 1542 1543 1544 1545 1545 1545 1545 1546 1546 1546 1546 1547 1547 1547 1547 1548